"2012-01-10 00:00:00",1549739,1.22,66.71,8.38,1.036,6.929,102.8264,6.514,7.392,35.23,0,110.1,13.33,7.29,28.7
"2012-01-10 00:00:30",1549740,1.008,63.37,4.165,0.54,6.192,102.8307,6.525,7.476,35.28,0,110.1,13.33,7.30,25.4
"2012-01-10 00:01:00",1549741,2.798,76.07,4.387,1.203,10.11,102.838,6.544,7.583,35.36,0,110.1,13.34,7.32,38.1
"2012-01-10 00:01:30",1549742,0.807,57.84,3.547,0.068,6.433,102.8409,6.551,7.396,35.2,0,110.1,13.38,7.33,19.8
"2012-01-10 00:02:00",1549743,0.81,62.54,4.867,0.068,6.697,102.8418,6.553,7.408,35.18,0,110.1,13.38,7.33,24.5
"2012-01-10 00:02:30",1549744,0.867,55.94,2.639,0.052,6.869,102.8373,6.542,7.394,35.2,0,110.1,13.38,7.32,17.9
"2012-01-10 00:03:00",1549745,0.732,67.34,10.44,0.099,7.535,102.8365,6.54,7.427,35.21,0,110.1,13.38,7.31,29.3
"2012-01-10 00:03:30",1549746,2.283,90.2,7.501,1.333,11.08,102.8269,6.515,7.563,35.38,0,110.1,13.34,7.29,52.2
"2012-01-10 00:04:00",1549747,2.83,87.9,7.65,1.071,11.94,102.8263,6.514,7.703,35.49,0,110.1,13.34,7.29,49.9
"2012-01-10 00:04:30",1549748,0.852,63.23,7.365,0.232,7.33,102.8164,6.489,7.548,35.35,0,110,13.38,7.26,25.2
"2012-01-10 00:05:00",1549749,1.181,55.97,5.127,0.825,6.513,102.8142,6.483,7.428,35.23,0,110,13.34,7.26,18.0
"2012-01-10 00:05:30",1549750,2.3,55.12,6.934,1.269,8.82,102.8142,6.483,7.513,35.35,0,110,13.34,7.26,17.1
"2012-01-10 00:06:00",1549751,0.923,45.81,1.391,0.071,6.415,102.8119,6.477,7.4,35.19,0,110,13.38,7.25,7.8
"2012-01-10 00:06:30",1549752,0.989,43.28,1.519,0.05,6.422,102.8116,6.476,7.386,35.16,0,110,13.38,7.25,5.3
"2012-01-10 00:07:00",1549753,0.944,45.28,3.656,0.063,6.726,102.812,6.477,7.389,35.2,0,110,13.39,7.25,7.3
"2012-01-10 00:07:30",1549754,0.912,52.27,3.786,0.081,7.231,102.8123,6.478,7.414,35.25,0,110,13.39,7.25,14.3
"2012-01-10 00:08:00",1549755,2.357,53.81,5.968,1.453,9.87,102.813,6.48,7.553,35.39,0,110,13.36,7.25,15.8
"2012-01-10 00:08:30",1549756,3.338,52.77,5.37,1.06,11.97,102.813,6.48,7.704,35.83,0,110,13.36,7.25,14.8
"2012-01-10 00:09:00",1549757,2.149,39.11,6.893,1.275,9.84,102.8125,6.478,7.569,35.61,0,110,13.36,7.25,1.1
"2012-01-10 00:09:30",1549758,1.184,35.87,1.942,0.162,6.497,102.8125,6.479,7.433,35.58,0,110,13.38,7.25,357.9
"2012-01-10 00:10:00",1549759,2.862,45.66,7.014,1.328,9.92,102.8204,6.499,7.544,35.67,0,110,13.35,7.27,7.7
"2012-01-10 00:10:30",1549760,0.97,49.63,4.436,0.09,6.334,102.8236,6.507,7.379,35.27,0,110,13.38,7.28,11.6
"2012-01-10 00:11:00",1549761,1.249,45.93,1.659,0.069,6.349,102.824,6.508,7.386,35.24,0,110,13.38,7.28,7.9
"2012-01-10 00:11:30",1549762,1.167,45.55,1.648,0.059,6.806,102.8261,6.513,7.375,35.48,0,110,13.38,7.29,7.5
"2012-01-10 00:12:00",1549763,1.266,44.76,1.095,0.052,7.368,102.8219,6.503,7.463,35.57,0,110,13.39,7.28,6.8
"2012-01-10 00:12:30",1549764,3.23,58.6,9.56,1.28,11.54,102.8205,6.499,7.642,35.76,0,110,13.35,7.27,20.6
"2012-01-10 00:13:00",1549765,3.619,56.95,5.7,0.828,12,102.8239,6.508,7.679,35.71,0,110,13.35,7.28,19.0
"2012-01-10 00:13:30",1549766,1.781,50.98,5.785,1.028,7.893,102.8191,6.495,7.472,35.52,0,110,13.35,7.27,13.0
"2012-01-10 00:14:00",1549767,2.124,47.69,5.93,1.152,8.09,102.8137,6.482,7.567,35.67,0,110,13.35,7.26,9.7
"2012-01-10 00:14:30",1549768,2.281,49.79,6.936,1.36,8.41,102.8126,6.479,7.508,35.55,0,110,13.36,7.25,11.8
"2012-01-10 00:15:00",1549769,1.169,43.68,1.279,0.063,6.232,102.8126,6.479,7.394,35.36,0,110,13.4,7.25,5.7
"2012-01-10 00:15:30",1549770,1.247,44.65,1.624,0.052,6.613,102.8126,6.479,7.381,35.54,0,110,13.4,7.25,6.7
"2012-01-10 00:16:00",1549771,1.129,46.8,2.346,0.067,7.118,102.8126,6.479,7.388,35.57,0,110,13.4,7.25,8.8
"2012-01-10 00:16:30",1549772,2.758,55.49,7.949,1.287,11.05,102.8126,6.479,7.684,35.86,0,110,13.37,7.25,17.5
"2012-01-10 00:17:00",1549773,3.554,60.24,4.607,0.679,12.32,102.8126,6.479,7.713,35.83,0,110,13.37,7.25,22.2
"2012-01-10 00:17:30",1549774,1.985,53.64,5.54,1.382,9.44,102.8126,6.479,7.555,35.78,0,110,13.37,7.25,15.6
"2012-01-10 00:18:00",1549775,0.704,40.81,5.598,0.13,6.526,102.8132,6.48,7.391,35.55,0,110,13.4,7.25,2.8
"2012-01-10 00:18:30",1549776,0.552,38.61,2.15,0.059,6.294,102.8028,6.454,7.52,35.63,0,110,13.41,7.23,0.6
"2012-01-10 00:19:00",1549777,0.975,42.9,6.992,1.059,7.093,102.7916,6.425,7.435,35.56,0,110,13.37,7.20,4.9
"2012-01-10 00:19:30",1549778,0.609,40.99,2.407,0.133,6.047,102.7925,6.427,7.343,35.51,0,110,13.41,7.20,3.0
"2012-01-10 00:20:00",1549779,0.755,39.48,2.817,0.08,6.355,102.801,6.449,7.355,35.55,0,110,13.41,7.22,1.5
"2012-01-10 00:20:30",1549780,0.606,42.14,5.287,0.094,6.722,102.8065,6.463,7.363,35.51,0,110,13.41,7.24,4.1
"2012-01-10 00:21:00",1549781,1.133,61.67,6.903,1.067,8.49,102.8102,6.473,7.454,35.62,0,110,13.37,7.25,23.7
"2012-01-10 00:21:30",1549782,0.894,58.54,3.8,1.026,8.91,102.8148,6.484,7.584,35.76,0,110,13.38,7.26,20.5
"2012-01-10 00:22:00",1549783,2.548,71.38,6.789,1.09,11.77,102.8166,6.489,7.652,35.78,0,109.9,13.38,7.26,33.4
"2012-01-10 00:22:30",1549784,1.091,62.85,8.89,1.046,8.69,102.8206,6.499,7.6,35.63,0,109.9,13.38,7.27,24.8
"2012-01-10 00:23:00",1549785,1.167,56.03,5.412,1.089,6.613,102.8221,6.503,7.365,35.39,0,110,13.37,7.28,18.0
"2012-01-10 00:23:30",1549786,1.714,67.88,7.14,1.313,8.1,102.8194,6.496,7.502,35.6,0,110,13.37,7.27,29.9
"2012-01-10 00:24:00",1549787,0.619,62.57,1.966,0.014,6.247,102.8158,6.487,7.373,35.41,0,109.9,13.41,7.26,24.6
"2012-01-10 00:24:30",1549788,0.642,63.83,1.304,0.048,6.246,102.813,6.48,7.359,35.43,0,110,13.41,7.25,25.8
"2012-01-10 00:25:00",1549789,0.621,65.79,3.326,0.039,6.492,102.8136,6.481,7.373,35.55,0,109.9,13.42,7.26,27.8
"2012-01-10 00:25:30",1549790,0.606,73.64,3.214,0.034,6.865,102.8136,6.481,7.364,35.49,0,109.9,13.41,7.26,35.6
"2012-01-10 00:26:00",1549791,0.657,73.44,4.15,0.11,7.284,102.8136,6.481,7.36,35.45,0,109.9,13.41,7.26,35.4
"2012-01-10 00:26:30",1549792,2.169,77.79,9.9,1.316,10.73,102.8136,6.481,7.634,35.78,0,109.9,13.38,7.26,39.8
"2012-01-10 00:27:00",1549793,2.28,84.2,5.613,1.324,10.15,102.8136,6.481,7.51,35.68,0,109.9,13.37,7.26,46.2
"2012-01-10 00:27:30",1549794,1.763,83.7,4.558,1.321,9.72,102.8136,6.481,7.592,35.75,0,109.9,13.37,7.26,45.7
"2012-01-10 00:28:00",1549795,0.998,79.86,3.256,0.847,6.558,102.8136,6.481,7.357,35.49,0,109.9,13.37,7.26,41.9
"2012-01-10 00:28:30",1549796,0.751,82.7,6.433,0.47,7.1,102.8121,6.478,7.498,35.64,0,109.9,13.41,7.25,44.7
"2012-01-10 00:29:00",1549797,0.542,87.8,2.303,0.06,6.795,102.8082,6.467,7.413,35.54,0,109.9,13.41,7.24,49.8
"2012-01-10 00:29:30",1549798,0.548,79.75,2.713,0.066,6.288,102.8048,6.459,7.351,35.49,0,109.9,13.41,7.23,41.8
"2012-01-10 00:30:00",1549799,0.48,81.3,4.089,0.068,6.501,102.7992,6.444,7.352,35.46,0,109.9,13.41,7.22,43.3
"2012-01-10 00:30:30",1549800,0.326,83.5,1.951,0.035,6.968,102.7941,6.431,7.349,35.4,0,109.9,13.42,7.21,45.5
"2012-01-10 00:31:00",1549801,0.334,90.8,2.218,0.036,7.382,102.7856,6.41,7.37,35.35,0,109.9,13.43,7.18,52.8
"2012-01-10 00:31:30",1549802,1.862,97.5,6.658,1.319,10.93,102.7823,6.401,7.56,35.49,0,109.9,13.39,7.18,59.5
"2012-01-10 00:32:00",1549803,1.896,97.5,7.145,1.311,10.82,102.7855,6.409,7.58,35.54,0,109.9,13.39,7.18,59.5
"2012-01-10 00:32:30",1549804,0.174,95.1,4.235,0.059,6.681,102.7892,6.419,7.319,35.23,0,109.9,13.43,7.19,57.1
"2012-01-10 00:33:00",1549805,0.567,130.3,15.96,1.07,7.848,102.7854,6.409,7.478,35.4,0,109.9,13.39,7.18,92.3
"2012-01-10 00:33:30",1549806,0.688,135.6,6.798,1.181,7.256,102.7804,6.396,7.354,35.32,0,109.9,13.39,7.17,97.6
"2012-01-10 00:34:00",1549807,0.47,109.4,10.02,0.914,7.312,102.7737,6.379,7.532,35.55,0,109.9,13.39,7.15,71.4
"2012-01-10 00:34:30",1549808,0.049,97.9,1.821,0.037,6.13,102.7693,6.368,7.334,35.43,0,109.9,13.43,7.14,59.9
"2012-01-10 00:35:00",1549809,0.002,144.4,24.51,0.053,5.759,102.7742,6.381,7.278,35.35,0,109.9,13.43,7.15,106.4
"2012-01-10 00:35:30",1549810,0.031,163.5,9.19,0.061,5.667,102.7783,6.391,7.291,35.37,0,109.9,13.43,7.17,125.5
"2012-01-10 00:36:00",1549811,-0.09,149.2,7.723,0.06,5.765,102.7755,6.384,7.274,35.4,0,109.9,13.43,7.16,111.2
"2012-01-10 00:36:30",1549812,-0.125,111.3,22.38,0.087,6.487,102.7597,6.344,7.248,35.45,0,109.9,13.44,7.12,73.3
"2012-01-10 00:37:00",1549813,0.159,94.3,11.7,0.028,6.791,102.7473,6.312,7.239,35.55,0,109.9,13.44,7.09,56.3
"2012-01-10 00:37:30",1549814,0.114,87.2,5.855,0.058,7.853,102.7605,6.346,7.229,35.61,0,109.9,13.44,7.12,49.2
"2012-01-10 00:38:00",1549815,0.829,80.2,7.184,1.126,8.93,102.7645,6.356,7.332,35.68,0,109.9,13.4,7.13,42.2
"2012-01-10 00:38:30",1549816,2.332,100.6,6.883,0.915,12.26,102.7676,6.364,7.514,35.86,0,109.9,13.4,7.14,62.6
"2012-01-10 00:39:00",1549817,0.126,80.5,7.05,0.038,7.144,102.7707,6.372,7.248,35.56,0,109.9,13.44,7.15,42.5
"2012-01-10 00:39:30",1549818,0.087,75.38,4.376,0.067,6.389,102.7696,6.369,7.255,35.55,0,109.9,13.44,7.14,37.4
"2012-01-10 00:40:00",1549819,0.024,88,11.08,0.055,6.168,102.7704,6.371,7.238,35.54,0,109.9,13.44,7.15,50.0
"2012-01-10 00:40:30",1549820,1.703,76.42,12.11,1.309,9.69,102.7642,6.355,7.523,35.79,0,109.9,13.4,7.13,38.4
"2012-01-10 00:41:00",1549821,2.396,82.9,5.378,1.02,10.69,102.7636,6.354,7.476,35.77,0,109.9,13.41,7.13,44.9
"2012-01-10 00:41:30",1549822,1.202,69.24,13.31,1.344,8.17,102.7628,6.351,7.243,35.55,0,109.9,13.41,7.13,31.2
"2012-01-10 00:42:00",1549823,-0.003,47.94,10.33,0.11,5.794,102.7631,6.352,7.242,35.52,0,109.9,13.44,7.13,9.9
"2012-01-10 00:42:30",1549824,-0.147,106.6,32.65,0.053,6.182,102.7605,6.346,7.242,35.51,0,109.9,13.44,7.12,68.6
"2012-01-10 00:43:00",1549825,-0.099,75.27,30.82,0.052,5.986,102.7518,6.323,7.239,35.5,0,109.9,13.44,7.10,37.3
"2012-01-10 00:43:30",1549826,-0.164,99.4,21.92,0.022,6.508,102.747,6.311,7.236,35.52,0,109.9,13.44,7.09,61.4
"2012-01-10 00:44:00",1549827,-0.151,104.6,9.77,0.026,6.855,102.7467,6.31,7.239,35.52,0,109.9,13.44,7.08,66.6
"2012-01-10 00:44:30",1549828,-0.176,122.5,26.46,0.007,6.806,102.7467,6.31,7.246,35.53,0,109.9,13.44,7.08,84.5
"2012-01-10 00:45:00",1549829,-0.177,88.4,25.9,0.004,7.342,102.7453,6.307,7.232,35.54,0,109.9,13.44,7.08,50.4
"2012-01-10 00:45:30",1549830,1.63,74.8,27.49,1.278,11.08,102.7323,6.274,7.512,35.85,0,109.9,13.41,7.05,36.8
"2012-01-10 00:46:00",1549831,1.177,132.6,12.27,1.338,9.6,102.7301,6.268,7.407,35.82,0,109.9,13.41,7.04,94.6
"2012-01-10 00:46:30",1549832,-0.175,146.2,8.89,0.009,6.409,102.7298,6.267,7.206,35.62,0,109.9,13.45,7.04,108.2
"2012-01-10 00:47:00",1549833,-0.165,147.4,19.51,0.024,5.875,102.733,6.275,7.195,35.61,0,109.9,13.45,7.05,109.4
"2012-01-10 00:47:30",1549834,-0.11,131.6,10.73,0.054,5.643,102.7361,6.283,7.204,35.63,0,109.9,13.45,7.06,93.6
"2012-01-10 00:48:00",1549835,-0.077,179,11.17,0.042,6.271,102.7311,6.27,7.207,35.62,0,109.9,13.45,7.04,141.0
"2012-01-10 00:48:30",1549836,0.134,183.1,29.43,0.8,6.9,102.7255,6.256,7.192,35.63,0,109.9,13.42,7.03,145.1
"2012-01-10 00:49:00",1549837,1.232,206.7,10.63,1.195,9.12,102.7256,6.256,7.403,35.86,0,109.9,13.42,7.03,168.7
"2012-01-10 00:49:30",1549838,1.478,195.1,5.551,1.295,9.67,102.7296,6.267,7.406,35.91,0,109.9,13.42,7.04,157.1
"2012-01-10 00:50:00",1549839,1.182,194.8,7.085,1.202,8.53,102.734,6.278,7.345,35.84,0,109.9,13.42,7.05,156.8
"2012-01-10 00:50:30",1549840,0.582,210.4,3.241,0.064,5.987,102.7348,6.28,7.188,35.68,0,109.9,13.46,7.05,172.4
"2012-01-10 00:51:00",1549841,0.388,195.2,7.209,0.085,6.103,102.7401,6.293,7.169,35.68,0,109.9,13.46,7.07,157.2
"2012-01-10 00:51:30",1549842,0.53,216.6,5.664,0.13,6.374,102.7412,6.296,7.164,35.7,0,109.9,13.46,7.07,178.6
"2012-01-10 00:52:00",1549843,1.536,212,6.133,1.23,9.07,102.7424,6.299,7.397,35.94,0,109.9,13.43,7.07,174.0
"2012-01-10 00:52:30",1549844,1.828,226.2,10.85,1.431,9.82,102.7421,6.299,7.362,35.89,0,109.9,13.43,7.07,188.2
"2012-01-10 00:53:00",1549845,0.63,215.9,6.795,0.057,7.082,102.7453,6.307,7.168,35.74,0,109.9,13.47,7.08,177.9
"2012-01-10 00:53:30",1549846,0.568,202.7,4.263,0.078,6.8,102.7462,6.309,7.168,35.72,0,109.9,13.47,7.08,164.7
"2012-01-10 00:54:00",1549847,2.196,219.1,7.286,1.302,9.59,102.7468,6.311,7.372,35.92,0,109.9,13.43,7.08,181.1
"2012-01-10 00:54:30",1549848,0.838,215.2,6.013,0.154,6.214,102.7431,6.301,7.17,35.81,0,109.9,13.47,7.08,177.2
"2012-01-10 00:55:00",1549849,0.95,223.5,8.59,0.093,6.443,102.7239,6.252,7.415,36.09,0,109.9,13.47,7.03,185.5
"2012-01-10 00:55:30",1549850,1.268,249.1,5.347,0.643,6.835,102.7146,6.228,7.193,35.88,0,109.9,13.43,7.00,211.1
"2012-01-10 00:56:00",1549851,1.176,242.5,5.78,0.145,6.248,102.7137,6.226,7.138,35.86,0,109.9,13.47,7.00,204.5
"2012-01-10 00:56:30",1549852,2.113,248.5,9.89,1.348,8.88,102.7137,6.226,7.26,36.02,0,109.9,13.43,7.00,210.5
"2012-01-10 00:57:00",1549853,2.645,244.5,4.581,1.16,9.99,102.7137,6.226,7.407,36.21,0,109.9,13.43,7.00,206.5
"2012-01-10 00:57:30",1549854,2.631,248.6,7.209,1.225,11.01,102.7137,6.226,7.432,36.22,0,109.9,13.43,7.00,210.6
"2012-01-10 00:58:00",1549855,1.883,237.9,6.799,1.253,8.24,102.7137,6.226,7.125,35.92,0,109.9,13.43,7.00,199.9
"2012-01-10 00:58:30",1549856,1.807,227.6,10.9,1.068,7.629,102.7137,6.226,7.26,36.01,0,109.9,13.43,7.00,189.6
"2012-01-10 00:59:00",1549857,2.369,225.4,5.887,1.352,7.875,102.7137,6.226,7.206,35.94,0,109.9,13.42,7.00,187.4
"2012-01-10 00:59:30",1549858,1.338,215.4,5.281,0.528,6.947,102.7137,6.226,7.254,35.99,0,109.9,13.46,7.00,177.4
"2012-01-10 01:00:00",1549859,1.715,219,13,1.136,7.349,102.7137,6.226,7.119,35.88,0,109.9,13.42,7.00,181.0
"2012-01-10 01:00:30",1549860,1.061,213.2,4.81,0.132,6.715,102.7137,6.226,7.123,35.87,0,109.9,13.46,7.00,175.2
"2012-01-10 01:01:00",1549861,1.641,221.4,6.926,0.952,7.696,102.7137,6.226,7.19,35.94,0,109.9,13.43,7.00,183.4
"2012-01-10 01:01:30",1549862,3.678,232.3,5.703,0.831,11.65,102.7137,6.226,7.401,36.12,0,109.9,13.43,7.00,194.3
"2012-01-10 01:02:00",1549863,2.837,228.1,8.22,1.301,10.61,102.7137,6.226,7.369,36.14,0,109.9,13.43,7.00,190.1
"2012-01-10 01:02:30",1549864,1.486,221.8,4.809,1.13,7.564,102.7225,6.248,7.144,35.91,0,109.9,13.42,7.02,183.8
"2012-01-10 01:03:00",1549865,0.794,222.4,2.327,0.036,6.201,102.7309,6.27,7.165,35.91,0,109.8,13.46,7.04,184.4
"2012-01-10 01:03:30",1549866,2.437,233.1,10.57,1.423,7.94,102.7332,6.276,7.233,35.85,0,109.9,13.43,7.05,195.1
"2012-01-10 01:04:00",1549867,2.784,238.6,6.134,1.375,8.59,102.7299,6.267,7.426,36.03,0,109.8,13.43,7.04,200.6
"2012-01-10 01:04:30",1549868,1.501,233.5,3.907,0.143,6.813,102.7223,6.248,7.177,35.76,0,109.9,13.47,7.02,195.5
"2012-01-10 01:05:00",1549869,1.391,220.6,5.834,0.09,7.147,102.7207,6.244,7.163,35.75,0,109.9,13.47,7.02,182.6
"2012-01-10 01:05:30",1549870,4.057,235.6,6.158,0.758,11.65,102.7221,6.248,7.355,35.97,0,109.9,13.44,7.02,197.6
"2012-01-10 01:06:00",1549871,3.788,242.5,3.872,1.054,11.84,102.7227,6.249,7.472,36.08,0,109.9,13.44,7.02,204.5
"2012-01-10 01:06:30",1549872,2.835,232.4,10.22,1.291,8.76,102.723,6.25,7.316,35.93,0,109.9,13.44,7.02,194.4
"2012-01-10 01:07:00",1549873,1.637,222.2,3.161,0.189,6.295,102.7224,6.248,7.165,35.79,0,109.8,13.47,7.02,184.2
"2012-01-10 01:07:30",1549874,1.408,217.7,3.9,0.209,6.258,102.7236,6.251,7.163,35.81,0,109.9,13.47,7.03,179.7
"2012-01-10 01:08:00",1549875,2.881,217.1,8.15,1.247,9.37,102.7262,6.258,7.183,35.9,0,109.8,13.44,7.03,179.1
"2012-01-10 01:08:30",1549876,2.197,217.3,8.94,1.363,8.94,102.7319,6.273,7.29,36.05,0,109.8,13.44,7.05,179.3
"2012-01-10 01:09:00",1549877,1.148,216.1,4.82,0.113,6.963,102.7361,6.283,7.189,35.9,0,109.8,13.48,7.06,178.1
"2012-01-10 01:09:30",1549878,3.423,222.7,6.366,1.201,11.28,102.7407,6.295,7.354,35.97,0,109.9,13.44,7.07,184.7
"2012-01-10 01:10:00",1549879,2.995,221.6,6.766,1.207,10.53,102.7362,6.284,7.374,35.96,0,109.8,13.44,7.06,183.6
"2012-01-10 01:10:30",1549880,2.804,231,5.967,1.209,9.61,102.7317,6.272,7.468,36.03,0,109.8,13.44,7.05,193.0
"2012-01-10 01:11:00",1549881,1.563,224.1,2.155,0.068,6.421,102.7314,6.271,7.176,35.76,0,109.8,13.48,7.05,186.1
"2012-01-10 01:11:30",1549882,1.686,220.4,3.021,0.115,6.015,102.7329,6.275,7.163,35.79,0,109.8,13.48,7.05,182.4
"2012-01-10 01:12:00",1549883,1.54,215.8,5.983,0.233,6.524,102.732,6.273,7.302,36.03,0,109.8,13.48,7.05,177.8
"2012-01-10 01:12:30",1549884,1.258,213.7,2.476,0.044,6.977,102.7323,6.274,7.196,35.83,0,109.8,13.48,7.05,175.7
"2012-01-10 01:13:00",1549885,1.718,215.5,6.552,0.829,8.05,102.732,6.273,7.352,35.96,0,109.9,13.45,7.05,177.5
"2012-01-10 01:13:30",1549886,2.398,216.8,7.848,1.369,8.85,102.7317,6.272,7.274,35.88,0,109.8,13.45,7.05,178.8
"2012-01-10 01:14:00",1549887,3.085,221.6,7.455,1.227,9.54,102.7314,6.271,7.32,35.99,0,109.8,13.45,7.05,183.6
"2012-01-10 01:14:30",1549888,3.428,215.1,10.63,1.334,9.38,102.7317,6.272,7.281,35.99,0,109.8,13.43,7.05,177.1
"2012-01-10 01:15:00",1549889,3.093,217.3,11.06,1.316,8.67,102.7332,6.276,7.25,35.98,0,109.8,13.43,7.05,179.3
"2012-01-10 01:15:30",1549890,1.907,205.6,4.999,0.216,6.401,102.7323,6.274,7.193,35.92,0,109.8,13.47,7.05,167.6
"2012-01-10 01:16:00",1549891,2.714,218.4,5.147,1.51,8.64,102.7323,6.274,7.419,36.28,0,109.8,13.43,7.05,180.4
"2012-01-10 01:16:30",1549892,3.111,226.4,7.835,1.332,8.64,102.7332,6.276,7.195,36.11,0,109.8,13.43,7.05,188.4
"2012-01-10 01:17:00",1549893,4.535,227.3,6.359,1.269,10.16,102.7298,6.267,7.301,36.51,0,109.8,13.43,7.04,189.3
"2012-01-10 01:17:30",1549894,4.074,227.6,6.429,1.067,11.75,102.7266,6.259,7.457,36.4,0,109.8,13.43,7.03,189.6
"2012-01-10 01:18:00",1549895,3.022,222.3,7.335,1.299,9.43,102.7323,6.274,7.221,36.09,0,109.8,13.43,7.05,184.3
"2012-01-10 01:18:30",1549896,2.578,216.8,7.011,1.24,8.79,102.7335,6.277,7.372,36.2,0,109.8,13.44,7.05,178.8
"2012-01-10 01:19:00",1549897,1.321,211.7,2.198,0.098,6.371,102.734,6.278,7.169,36,0,109.8,13.47,7.05,173.7
"2012-01-10 01:19:30",1549898,1.347,210.9,1.423,0.089,6.42,102.7375,6.287,7.257,36.1,0,109.8,13.47,7.06,172.9
"2012-01-10 01:20:00",1549899,2.949,226.5,10.05,1.287,9.45,102.7349,6.28,7.441,36.46,0,109.8,13.45,7.05,188.5
"2012-01-10 01:20:30",1549900,2.289,217.1,15.89,1.384,8.56,102.7361,6.283,7.226,36.2,0,109.8,13.45,7.06,179.1
"2012-01-10 01:21:00",1549901,2.503,216.2,6.963,1.329,10.06,102.7392,6.291,7.373,36.27,0,109.8,13.45,7.07,178.2
"2012-01-10 01:21:30",1549902,3.352,220.3,5.05,0.913,11.83,102.746,6.309,7.418,36.32,0,109.8,13.45,7.08,182.3
"2012-01-10 01:22:00",1549903,1.637,217.7,7.878,1.074,7.789,102.7548,6.331,7.315,36.18,0,109.8,13.45,7.11,179.7
"2012-01-10 01:22:30",1549904,2.37,214.3,8.12,1.349,8.26,102.7548,6.331,7.214,36.05,0,109.8,13.45,7.11,176.3
"2012-01-10 01:23:00",1549905,1.279,210.6,3.093,0.49,6.306,102.7562,6.335,7.214,35.99,0,109.8,13.45,7.11,172.6
"2012-01-10 01:23:30",1549906,1.239,210.7,2.102,0.174,6.295,102.763,6.352,7.227,36.02,0,109.8,13.49,7.13,172.7
"2012-01-10 01:24:00",1549907,2.201,212.5,7.723,1.034,6.874,102.7585,6.341,7.223,36.23,0,109.8,13.45,7.11,174.5
"2012-01-10 01:24:30",1549908,4.277,224.4,6.057,0.794,10.55,102.7446,6.305,7.214,36.4,0,109.8,13.45,7.08,186.4
"2012-01-10 01:25:00",1549909,2.6,209.7,7.192,1.288,9.8,102.741,6.296,7.462,36.41,0,109.8,13.45,7.07,171.7
"2012-01-10 01:25:30",1549910,4.141,224.7,7.761,0.97,10.97,102.7407,6.295,7.365,36.42,0,109.8,13.45,7.07,186.7
"2012-01-10 01:26:00",1549911,3.37,216.1,8.05,1.281,11.18,102.741,6.296,7.493,36.54,0,109.8,13.45,7.07,178.1
"2012-01-10 01:26:30",1549912,2.839,216.6,7.258,1.179,7.393,102.7413,6.297,7.256,36.54,0,109.8,13.45,7.07,178.6
"2012-01-10 01:27:00",1549913,2.273,211,12.16,1.16,7.329,102.7419,6.298,7.208,36.51,0,109.8,13.45,7.07,173.0
"2012-01-10 01:27:30",1549914,1.4,188.7,10.56,0.183,6.847,102.7419,6.298,7.196,36.27,0,109.8,13.49,7.07,150.7
"2012-01-10 01:28:00",1549915,2.404,192.8,6.556,1.202,7.736,102.7433,6.302,7.188,36.3,0,109.8,13.45,7.08,154.8
"2012-01-10 01:28:30",1549916,2.885,203.1,10.69,1.298,9.87,102.7416,6.297,7.389,36.42,0,109.8,13.45,7.07,165.1
"2012-01-10 01:29:00",1549917,3.185,211.2,7.871,1.09,10.53,102.7475,6.313,7.374,36.37,0,109.8,13.45,7.09,173.2
"2012-01-10 01:29:30",1549918,2.78,207.8,4.095,1.233,10.39,102.7467,6.31,7.39,36.26,0,109.8,13.45,7.08,169.8
"2012-01-10 01:30:00",1549919,1.419,206.2,2.627,0.188,6.679,102.7476,6.313,7.297,36.16,0,109.8,13.49,7.09,168.2
"2012-01-10 01:30:30",1549920,1.411,201.1,4.282,0.141,6.59,102.7465,6.31,7.384,36.29,0,109.8,13.49,7.08,163.1
"2012-01-10 01:31:00",1549921,1.802,199.2,5.024,0.812,7.284,102.7476,6.313,7.439,36.36,0,109.8,13.45,7.09,161.2
"2012-01-10 01:31:30",1549922,1.383,205.1,2.633,0.108,6.51,102.7462,6.309,7.223,36.17,0,109.8,13.49,7.08,167.1
"2012-01-10 01:32:00",1549923,1.646,205.6,4.832,0.506,6.762,102.7483,6.314,7.257,36.32,0,109.9,13.45,7.09,167.6
"2012-01-10 01:32:30",1549924,3.477,220.4,7.755,1.198,10.83,102.7451,6.306,7.487,36.62,0,109.8,13.45,7.08,182.4
"2012-01-10 01:33:00",1549925,2.849,208.5,12.23,1.338,10.33,102.7471,6.311,7.466,36.55,0,109.8,13.45,7.09,170.5
"2012-01-10 01:33:30",1549926,1.68,205.9,2.981,0.628,7.311,102.7483,6.314,7.332,36.37,0,109.8,13.45,7.09,167.9
"2012-01-10 01:34:00",1549927,2.468,211.7,5.87,1.267,8.61,102.7477,6.313,7.233,36.26,0,109.8,13.45,7.09,173.7
"2012-01-10 01:34:30",1549928,2.264,204.2,5.997,1.221,8.42,102.7474,6.312,7.315,36.37,0,109.8,13.45,7.09,166.2
"2012-01-10 01:35:00",1549929,1.832,200.7,7.96,0.942,7.956,102.7471,6.311,7.434,36.46,0,109.8,13.45,7.09,162.7
"2012-01-10 01:35:30",1549930,1.429,191.9,6.659,0.241,6.951,102.7483,6.314,7.206,36.29,0,109.8,13.48,7.09,153.9
"2012-01-10 01:36:00",1549931,1.16,190.2,8.45,0.153,7.097,102.7486,6.315,7.202,36.34,0,109.8,13.45,7.09,152.2
"2012-01-10 01:36:30",1549932,3.16,200.1,7.779,1.18,10.9,102.7483,6.314,7.49,36.65,0,109.8,13.45,7.09,162.1
"2012-01-10 01:37:00",1549933,2.764,201.5,5.22,1.128,9.77,102.75,6.319,7.403,36.55,0,109.8,13.46,7.09,163.5
"2012-01-10 01:37:30",1549934,3.046,201.5,6.718,1.325,8.9,102.7551,6.332,7.264,36.4,0,109.8,13.46,7.11,163.5
"2012-01-10 01:38:00",1549935,1.715,194.7,7.903,0.914,7.678,102.7649,6.357,7.402,36.55,0,109.8,13.46,7.13,156.7
"2012-01-10 01:38:30",1549936,1.459,177.1,2.45,0.199,6.985,102.7754,6.384,7.253,36.48,0,109.8,13.49,7.16,139.1
"2012-01-10 01:39:00",1549937,1.387,170.4,10.62,1.009,8.36,102.7822,6.401,7.412,36.61,0,109.8,13.46,7.18,132.4
"2012-01-10 01:39:30",1549938,0.882,170.5,11.39,0.153,7.332,102.7825,6.402,7.374,36.57,0,109.8,13.5,7.18,132.5
"2012-01-10 01:40:00",1549939,1.376,185.1,2.987,0.109,7.276,102.7825,6.402,7.281,36.33,0,109.8,13.5,7.18,147.1
"2012-01-10 01:40:30",1549940,2.831,192.7,11.45,1.292,9.96,102.7822,6.401,7.445,36.5,0,109.8,13.46,7.18,154.7
"2012-01-10 01:41:00",1549941,3.014,203.5,8.39,1.347,10.02,102.7825,6.402,7.474,36.5,0,109.8,13.46,7.18,165.5
"2012-01-10 01:41:30",1549942,1.336,180.3,9.78,0.154,6.84,102.7825,6.402,7.28,36.32,0,109.8,13.5,7.18,142.3
"2012-01-10 01:42:00",1549943,3.071,177.8,4.653,1.199,9.72,102.7825,6.402,7.42,36.52,0,109.8,13.46,7.18,139.8
"2012-01-10 01:42:30",1549944,1.458,164.2,3.895,0.783,7.093,102.7825,6.402,7.329,36.46,0,109.8,13.46,7.18,126.2
"2012-01-10 01:43:00",1549945,1.254,165.3,4.132,0.083,7.183,102.7825,6.402,7.272,36.41,0,109.8,13.5,7.18,127.3
"2012-01-10 01:43:30",1549946,1.735,171.9,7.315,0.988,7.436,102.7825,6.402,7.277,36.44,0,109.8,13.46,7.18,133.9
"2012-01-10 01:44:00",1549947,2.602,170.7,9.51,1.31,10.1,102.7825,6.402,7.493,36.66,0,109.8,13.46,7.18,132.7
"2012-01-10 01:44:30",1549948,2,178.7,11.12,1.288,9.12,102.7825,6.402,7.454,36.59,0,109.8,13.46,7.18,140.7
"2012-01-10 01:45:00",1549949,3.413,171.6,11.51,1.125,11.3,102.7825,6.402,7.515,36.71,0,109.8,13.46,7.18,133.6
"2012-01-10 01:45:30",1549950,1.249,169.8,4.767,0.171,6.87,102.7825,6.402,7.299,36.44,0,109.8,13.5,7.18,131.8
"2012-01-10 01:46:00",1549951,1.661,172.1,8.2,1.038,7.267,102.7825,6.402,7.353,36.52,0,109.8,13.46,7.18,134.1
"2012-01-10 01:46:30",1549952,1.35,168.2,3.671,0.181,7.047,102.7825,6.402,7.418,36.58,0,109.8,13.46,7.18,130.2
"2012-01-10 01:47:00",1549953,2.76,179.4,10.88,1.313,10.38,102.7825,6.402,7.429,36.57,0,109.8,13.46,7.18,141.4
"2012-01-10 01:47:30",1549954,1.437,164.2,6.132,0.119,7.157,102.7825,6.402,7.302,36.49,0,109.8,13.49,7.18,126.2
"2012-01-10 01:48:00",1549955,1.453,148.7,5.61,0.853,8.15,102.7825,6.402,7.439,36.65,0,109.8,13.46,7.18,110.7
"2012-01-10 01:48:30",1549956,1.977,157.6,6.829,1.267,9.19,102.7836,6.405,7.456,36.67,0,109.8,13.46,7.18,119.6